Regional Weather Roundup
Issued by NWS

Home | Current Version | Previous Version | Graphics & Text | Print | Product List | Glossary On
Versions: 1 2 3 4 5 6 7 8 9 10 11 12 13 14 15 16 17 18 19 20 21 22 23 24 25 26 27 28 29 30 31 32 33 34 35 36 37 38 39 40 41 42 43 44 45 46 47 48 49 50
000
ASUS45 KCYS 251910
RWRWY

WYOMING REGIONAL WEATHER ROUNDUP
NATIONAL WEATHER SERVICE CHEYENNE WY
1200 PM MST SAT FEB 25 2017

NOTE:  "FAIR" INDICATES FEW OR NO CLOUDS BELOW 12,000 FEET
WITH NO SIGNIFICANT WEATHER AND/OR OBSTRUCTIONS TO VISIBILITY.

WYZ001-252000-
YELLOWSTONE NATIONAL PARK

CITY           SKY/WX    TMP DP  RH WIND       PRES   REMARKS
LK YELLOWSTONE   N/A     11   0  61 W9G23     29.78S WCI  -2
W YELLOWSTONE  NOT AVBL

$$
WYZ002>013-054>058-071-098>099-252000-
NORTHERN WYOMING

CITY           SKY/WX    TMP DP  RH WIND       PRES   REMARKS
JACKSON        CLOUDY    18   9  68 S17       29.87F WCI   2
CODY           FAIR      29   5  36 SW15G23   29.80F WCI  18
GREYBULL       FAIR      30  17  58 S10       29.84F WCI  21
WORLAND        FAIR      27  16  63 W3        29.85F
SHERIDAN       FAIR      27  16  63 SE9       29.80F WCI  18
BUFFALO        PTSUNNY   24  16  71 S8        29.77F WCI  15
GILLETTE       CLOUDY    25  18  74 SW12      29.80F WCI  14
HULETT         CLOUDY    30  18  59 W13       29.80F WCI  20
NEWCASTLE      CLOUDY    27  19  74 S6        29.86F WCI  20

$$
WYZ014>020-022>026-101>103-252000-
CENTRAL WYOMING

CITY           SKY/WX    TMP DP  RH WIND       PRES   REMARKS
BIG PINEY      LGT SNOW   4  -2  76 NE5       29.90F WCI  -5
PINEDALE       FAIR       9  -4  56 CALM      29.90S
DUBOIS         MOCLDY    14   3  62 W32G41    29.72F HAZE    WCI  -7
LANDER         FAIR      13   2  61 CALM      29.84F
RIVERTON       FAIR      14   6  70 S7        29.84F WCI   4
CASPER         FAIR      17   8  67 SW22      29.85S WCI   0
DOUGLAS        FAIR      23   9  55 W21       29.85F WCI   8

$$
WYZ021-027>030-104>119-252000-
SOUTHERN WYOMING

CITY           SKY/WX    TMP DP  RH WIND       PRES   REMARKS
EVANSTON       PTSUNNY   16   8  71 SW15      29.93F WCI   1
FORT BRIDGER   FAIR      19  11  68 W22G30    29.95F WCI   3
ROCK SPRINGS   FAIR      15   5  64 W17       29.92F WCI  -1
DIXON            N/A     23  11  58 SW15G24   29.97F WCI  10
RAWLINS        CLOUDY    17   9  70 SW28G37   29.85F WCI  -2
SARATOGA       FAIR      18   9  68 SW15      29.89F WCI   3
LARAMIE        PTSUNNY   17   5  59 SW18      29.79F WCI   1
CHEYENNE       FAIR      23   4  44 NW14G29   29.83F WCI  11
TORRINGTON     FAIR      24   9  52 CALM      29.90F
PINE BLUFFS    FAIR      27  10  50 NW10G22   29.88F WCI  17

$$



USA.gov is the U.S. government's official web portal to all federal, state and local government web resources and services.